Zurück zum Katalog

STARLINK-31472

AktivKommunikationVLEO
NORAD 59730·PAYLOAD·🇺🇸 United States

Gestartet May 13, 2024 von Cape Canaveral Space Force Station

Loading…

Nächste Überflüge (nächste 24 Stunden)

TLE

AktuellSource: CelesTrak SupGP

Epoche: Sep 15, 2026, 02:12 UTC

1 59730C 24090A   26258.09215278  .00076245  00000+0  21730-2 0  2582
2 59730  42.9976 191.6922 0009085 178.9914 111.9018 15.35167888    18

Verfolge STARLINK-31472 in Echtzeit mit AllMySat

Download on the App Store